Torna al catalogo

STARLINK-37810

AttivoComunicazioniVLEO
NORAD 100292·PAYLOAD·🇺🇸 United States

Lanciato Aug 11, 2026 da Cape Canaveral Space Force Station

Loading…

Prossimi Passaggi (prossime 24 ore)

TLE

In scadenzaSource: Space-Track

Epoca: Sep 11, 2026, 12:14 UTC

1 A0292U 26183W   26254.51036600 -.00206136  00000-0 -14125-2 0  9998
2 A0292  53.1567 301.5538 0002044  62.3920 297.7307 15.74594583  4896

Traccia STARLINK-37810 in tempo reale con AllMySat

Download on the App Store